This demonstration page uses our WeatherBlox Daily Observations layout. Learn more.

Left ArrowRight Arrow

41.86663, -103.66717

Hourly Observations for December 31, 2016

Temp ( °F °C ) Dew Point ( °F °C ) Humidity (%) Winds ( mph kmh ) Pressure ( in mb ) Visibility ( mi km ) Precip ( " mm )
12:53 am 00:53 Cloudy 28 -2.2 19 -7.2 69 69 WNW 9 15 29.87 1012 10 16 0.00 0.00
1:42 am 01:42 Cloudy with Light Snow 27 -3 21 -6 80 80 NW 9 15 30.03 1017 3 4 0.00 0.00
1:50 am 01:50 Cloudy with Light Snow 27 -3 21 -6 80 80 NW 8 13 30.03 1017 3 5 0.00 0.00
1:53 am 01:53 Cloudy with Light Snow 26 -3.3 22 -5.6 84 84 NW 9 15 29.87 1011 3 4 0.00 0.03
2:43 am 02:43 Cloudy with Light Snow 26 -3.3 22 -5.6 84 84 WNW 9 15 30.03 1017 2 3 0.00 0.03
2:53 am 02:53 Cloudy with Light Snow 26 -3.3 22 -5.6 84 84 WNW 8 13 29.89 1012 2 3 0.01 0.25
3:19 am 03:19 Cloudy with Light Snow 26 -3.3 22 -5.6 84 84 WNW 9 15 30.06 1018 3 5 0.00 0.03
3:53 am 03:53 Cloudy 26 -3.3 22 -5.6 84 84 W 8 13 29.89 1012 8 13 0.00 0.03
4:53 am 04:53 Mostly Clear 23 -5 20 -6.7 88 88 WNW 8 13 29.87 1012 10 16 0.00 0.03
5:53 am 05:53 Clear 21 -6.1 18 -7.8 88 88 WNW 7 11 29.90 1013 10 16 0.00 0.00
6:53 am 06:53 Clear 19 -7.2 16 -8.9 88 88 WNW 5 7 29.92 1013 10 16 0.00 0.00
7:53 am 07:53 Sunny 18 -7.8 15 -9.4 88 88 NNW 6 9 29.96 1014 10 16 0.00 0.00
8:53 am 08:53 Sunny 23 -5 19 -7.2 85 85 Calm 29.94 1014 10 16 0.00 0.00
9:53 am 09:53 Sunny 29 -1.7 21 -6.1 72 72 Calm 29.93 1014 10 16 0.00 0.00
10:53 am 10:53 Sunny 32 0 22 -5.6 66 66 ESE 7 11 29.89 1012 10 16 0.00 0.00
11:53 am 11:53 Sunny 37 2.8 23 -5 57 57 SSW 14 22 29.83 1010 10 16 0.00 0.00
1:53 pm 13:53 Sunny 42 5.6 24 -4.4 49 49 S 10 17 29.76 1008 10 16 0.00 0.00
2:53 pm 14:53 Sunny 43 6.1 23 -5 45 45 SSE 5 7 29.74 1007 10 16 0.00 0.00
3:53 pm 15:53 Sunny 41 5 25 -3.9 53 53 SSE 6 9 29.76 1008 10 16 0.00 0.00
4:53 pm 16:53 Clear 36 2.2 24 -4.4 62 62 S 7 11 29.78 1008 10 16 0.00 0.00
5:53 pm 17:53 Clear 34 1.1 23 -5 64 64 SSW 9 15 29.79 1009 10 16 0.00 0.00
6:53 pm 18:53 Clear 33 0.6 22 -5.6 64 64 SSW 8 13 29.82 1010 10 16 0.00 0.00
7:53 pm 19:53 Clear 31 -0.6 21 -6.1 67 67 S 7 11 29.82 1010 10 16 0.00 0.00
8:53 pm 20:53 Clear 30 -1.1 20 -6.7 66 66 S 6 9 29.80 1009 10 16 0.00 0.00
9:53 pm 21:53 Clear 24 -4.4 19 -7.2 81 81 ENE 5 7 29.80 1009 10 16 0.00 0.00
10:53 pm 22:53 Clear 23 -5 17 -8.3 78 78 E 6 9 29.79 1009 10 16 0.00 0.00
11:53 pm 23:53 Clear 21 -6.1 16 -8.9 81 81 ENE 7 11 29.77 1008 10 16 0.00 0.00

Powered by AerisWeather